GW5350 Weather Reports


Display with metric or nautical units.
time (UTC)temp
F
wind
direction
speed
MPH
gust
MPH
rain 1hr
in
rain 24hr
in
rain mn
in
humidity
%
barometer
mb
20260507165312 86 132 1.0 1.0 0.00 0.00 0.00 70 984.0
20260507164811 86 130 2.0 2.0 0.00 0.00 0.00 70 984.0
20260507164311 86 102 1.0 3.0 0.00 0.00 0.00 69 984.0
20260507163811 86 68 1.0 1.0 0.00 0.00 0.00 69 984.0
20260507163311 86 86 0.0 1.0 0.00 0.00 0.00 69 984.0
20260507162813 86 127 0.0 0.0 0.00 0.00 0.00 69 984.0
20260507162311 86 137 4.0 4.0 0.00 0.00 0.00 69 984.0
20260507161811 86 161 2.0 2.0 0.00 0.00 0.00 69 984.0
20260507161311 86 214 2.0 2.0 0.00 0.00 0.00 69 984.0
20260507160820 86 197 2.0 2.0 0.00 0.00 0.00 69 984.0
20260507160312 86 142 0.0 1.0 0.00 0.00 0.00 69 983.0
20260507155812 86 146 2.0 2.0 0.00 0.00 0.00 69 983.0
20260507155311 86 148 1.0 1.0 0.00 0.00 0.00 68 983.0
20260507154812 86 193 1.0 2.0 0.00 0.00 0.00 68 983.0
20260507154311 87 204 2.0 3.0 0.00 0.00 0.00 67 983.0
20260507153811 88 210 4.0 6.0 0.00 0.00 0.00 66 983.0
20260507153313 88 138 1.0 1.0 0.00 0.00 0.00 65 983.0
20260507152812 88 145 1.0 1.0 0.00 0.00 0.00 65 983.0
20260507152312 88 132 0.0 1.0 0.00 0.00 0.00 65 983.0
20260507151813 87 156 1.0 2.0 0.00 0.00 0.00 65 983.0
20260507151312 87 127 1.0 1.0 0.00 0.00 0.00 65 983.0
20260507150811 87 138 0.0 1.0 0.00 0.00 0.00 65 982.0
20260507150312 88 135 0.0 0.0 0.00 0.00 0.00 65 982.0
20260507145813 87 129 0.0 0.0 0.00 0.00 0.00 65 982.0
20260507145311 88 125 0.0 0.0 0.00 0.00 0.00 65 982.0
20260507144812 88 126 0.0 0.0 0.00 0.00 0.00 64 982.0
20260507144313 88 123 0.0 0.0 0.00 0.00 0.00 64 982.0
20260507143812 88 121 0.0 1.0 0.00 0.00 0.00 64 982.0
20260507143312 88 133 0.0 1.0 0.00 0.00 0.00 64 982.0
20260507142812 89 136 0.0 1.0 0.00 0.00 0.00 64 982.0
20260507142311 89 130 0.0 0.0 0.00 0.00 0.00 64 981.0
20260507141812 89 107 0.0 0.0 0.00 0.00 0.00 63 981.0
20260507141314 89 33 0.0 1.0 0.00 0.00 0.00 63 981.0
20260507140811 89 120 0.0 0.0 0.00 0.00 0.00 63 981.0
20260507140312 90 108 2.0 3.0 0.00 0.00 0.00 62 981.0
20260507135811 90 116 0.0 0.0 0.00 0.00 0.00 62 981.0
20260507135312 90 127 0.0 0.0 0.00 0.00 0.00 62 981.0
20260507134815 91 128 0.0 0.0 0.00 0.00 0.00 61 981.0
20260507134312 91 100 0.0 0.0 0.00 0.00 0.00 60 981.0
20260507133812 91 128 0.0 0.0 0.00 0.00 0.00 60 981.0
20260507133311 91 106 1.0 2.0 0.00 0.00 0.00 60 981.0
20260507132811 91 98 2.0 3.0 0.00 0.00 0.00 60 980.0
20260507132311 92 100 1.0 2.0 0.00 0.00 0.00 59 980.0
20260507131812 92 75 2.0 2.0 0.00 0.00 0.00 58 980.0
20260507131311 92 128 0.0 0.0 0.00 0.00 0.00 58 980.0
20260507130813 92 128 0.0 0.0 0.00 0.00 0.00 58 980.0
20260507130311 93 128 0.0 0.0 0.00 0.00 0.00 58 980.0
20260507125811 93 130 0.0 0.0 0.00 0.00 0.00 57 980.0
20260507125313 93 123 0.0 0.0 0.00 0.00 0.00 58 980.0
20260507124811 93 127 0.0 0.0 0.00 0.00 0.00 57 980.0
20260507124311 94 148 0.0 0.0 0.00 0.00 0.00 56 980.0
20260507123811 94 131 0.0 1.0 0.00 0.00 0.00 56 980.0
20260507123311 94 128 0.0 0.0 0.00 0.00 0.00 56 980.0
20260507122811 95 128 0.0 0.0 0.00 0.00 0.00 55 980.0
20260507122311 96 129 0.0 0.0 0.00 0.00 0.00 54 980.0
20260507121811 95 119 0.0 0.0 0.00 0.00 0.00 54 980.0
20260507121311 95 123 0.0 0.0 0.00 0.00 0.00 54 980.0
20260507120811 96 123 0.0 0.0 0.00 0.00 0.00 54 980.0
20260507120311 97 136 0.0 0.0 0.00 0.00 0.00 53 980.0
20260507115811 97 133 0.0 0.0 0.00 0.00 0.00 53 980.0
20260507114828 96 126 0.0 0.0 0.00 0.00 0.00 53 980.0
20260507114311 97 131 0.0 0.0 0.00 0.00 0.00 52 980.0
20260507113811 97 109 0.0 1.0 0.00 0.00 0.00 52 980.0
20260507113311 96 138 0.0 1.0 0.00 0.00 0.00 52 980.0
20260507112812 96 136 0.0 0.0 0.00 0.00 0.00 53 980.0
20260507112312 95 137 0.0 0.0 0.00 0.00 0.00 55 980.0
20260507111812 94 139 0.0 1.0 0.00 0.00 0.00 56 980.0
20260507111311 95 173 2.0 2.0 0.00 0.00 0.00 54 980.0
20260507110811 95 128 0.0 0.0 0.00 0.00 0.00 56 980.0
20260507110311 95 127 0.0 0.0 0.00 0.00 0.00 56 980.0
20260507105811 95 139 0.0 1.0 0.00 0.00 0.00 55 980.0
20260507105311 95 133 0.0 0.0 0.00 0.00 0.00 55 980.0
20260507104811 95 124 0.0 0.0 0.00 0.00 0.00 55 980.0
20260507104314 95 128 0.0 0.0 0.00 0.00 0.00 55 980.0
20260507103811 94 152 0.0 1.0 0.00 0.00 0.00 56 980.0
20260507103311 95 135 1.0 1.0 0.00 0.00 0.00 55 980.0
20260507102811 96 125 0.0 1.0 0.00 0.00 0.00 54 980.0
20260507102311 96 174 1.0 2.0 0.00 0.00 0.00 54 980.0
20260507101811 96 127 0.0 0.0 0.00 0.00 0.00 53 980.0
20260507101311 96 129 0.0 0.0 0.00 0.00 0.00 54 980.0
20260507100813 97 129 0.0 0.0 0.00 0.00 0.00 52 981.0
20260507100311 95 128 0.0 0.0 0.00 0.00 0.00 53 981.0
20260507095812 96 122 0.0 0.0 0.00 0.00 0.00 52 980.0
20260507095313 96 89 1.0 1.0 0.00 0.00 0.00 53 981.0
20260507094812 96 149 2.0 2.0 0.00 0.00 0.00 54 981.0
20260507094312 95 121 1.0 1.0 0.00 0.00 0.00 54 981.0
20260507093811 96 131 2.0 2.0 0.00 0.00 0.00 53 981.0
20260507093312 96 71 1.0 1.0 0.00 0.00 0.00 53 981.0
20260507092812 96 125 0.0 0.0 0.00 0.00 0.00 53 981.0
20260507092312 94 127 0.0 1.0 0.00 0.00 0.00 55 981.0
20260507091811 95 207 2.0 2.0 0.00 0.00 0.00 54 981.0
20260507091312 96 162 2.0 2.0 0.00 0.00 0.00 53 981.0
20260507090812 96 127 0.0 0.0 0.00 0.00 0.00 53 981.0
20260507090311 95 150 0.0 1.0 0.00 0.00 0.00 54 981.0
20260507085812 95 147 2.0 2.0 0.00 0.00 0.00 54 981.0
20260507085311 95 167 2.0 2.0 0.00 0.00 0.00 55 981.0
20260507084812 95 121 2.0 2.0 0.00 0.00 0.00 55 981.0
20260507084311 95 145 2.0 2.0 0.00 0.00 0.00 55 981.0
20260507083811 95 108 1.0 1.0 0.00 0.00 0.00 55 981.0
20260507083312 95 106 1.0 1.0 0.00 0.00 0.00 55 981.0
20260507082812 94 58 1.0 2.0 0.00 0.00 0.00 56 981.0
20260507082312 93 130 0.0 0.0 0.00 0.00 0.00 56 981.0
20260507081812 93 139 1.0 1.0 0.00 0.00 0.00 56 982.0
20260507081311 93 134 2.0 3.0 0.00 0.00 0.00 57 982.0
20260507080811 93 129 0.0 0.0 0.00 0.00 0.00 57 982.0
20260507080312 93 206 4.0 4.0 0.00 0.00 0.00 56 982.0
20260507075811 94 170 2.0 2.0 0.00 0.00 0.00 56 982.0
20260507075311 94 90 3.0 4.0 0.00 0.00 0.00 56 982.0
20260507074811 95 138 1.0 1.0 0.00 0.00 0.00 56 982.0
20260507074311 95 122 1.0 1.0 0.00 0.00 0.00 56 982.0
20260507073811 95 156 1.0 1.0 0.00 0.00 0.00 56 982.0
20260507073311 93 133 0.0 1.0 0.00 0.00 0.00 59 982.0
20260507072811 95 162 2.0 3.0 0.00 0.00 0.00 58 982.0
20260507072312 93 126 0.0 1.0 0.00 0.00 0.00 59 982.0
20260507071812 93 202 2.0 3.0 0.00 0.00 0.00 60 983.0
20260507071313 93 59 2.0 2.0 0.00 0.00 0.00 60 983.0
20260507070812 92 67 2.0 2.0 0.00 0.00 0.00 59 983.0
20260507070311 93 91 3.0 3.0 0.00 0.00 0.00 61 983.0
20260507065812 93 120 0.0 0.0 0.00 0.00 0.00 60 983.0
20260507065311 91 125 1.0 1.0 0.00 0.00 0.00 61 983.0
20260507064812 92 153 1.0 1.0 0.00 0.00 0.00 60 983.0
20260507064311 92 171 1.0 2.0 0.00 0.00 0.00 61 983.0
20260507063811 92 133 1.0 1.0 0.00 0.00 0.00 61 984.0
20260507063312 92 182 1.0 2.0 0.00 0.00 0.00 61 984.0
20260507062812 92 241 2.0 3.0 0.00 0.00 0.00 61 984.0
20260507062312 92 163 2.0 2.0 0.00 0.00 0.00 62 984.0
20260507061811 90 116 0.0 0.0 0.00 0.00 0.00 62 984.0
20260507061311 90 127 5.0 6.0 0.00 0.00 0.00 62 984.0
20260507060812 91 136 2.0 2.0 0.00 0.00 0.00 63 984.0
20260507060312 91 171 2.0 3.0 0.00 0.00 0.00 62 984.0
20260507055812 90 173 2.0 2.0 0.00 0.00 0.00 62 984.0
20260507055312 91 151 2.0 3.0 0.00 0.00 0.00 62 984.0
20260507054812 91 150 4.0 6.0 0.00 0.00 0.00 62 984.0
20260507054311 91 151 3.0 3.0 0.00 0.00 0.00 62 984.0
20260507053813 91 122 2.0 3.0 0.00 0.00 0.00 62 984.0
20260507053311 89 132 1.0 2.0 0.00 0.00 0.00 63 984.0
20260507052811 91 168 2.0 3.0 0.00 0.00 0.00 61 984.0
20260507052311 91 130 0.0 1.0 0.00 0.00 0.00 62 984.0
20260507051812 92 111 3.0 3.0 0.00 0.00 0.00 61 984.0
20260507051311 91 108 0.0 0.0 0.00 0.00 0.00 61 985.0
20260507050811 91 138 0.0 0.0 0.00 0.00 0.00 61 985.0
20260507050312 90 168 3.0 3.0 0.00 0.00 0.00 63 985.0
20260507045811 89 88 1.0 1.0 0.00 0.00 0.00 63 985.0
20260507045312 90 155 2.0 3.0 0.00 0.00 0.00 63 985.0
20260507044811 91 157 1.0 2.0 0.00 0.00 0.00 61 985.0
20260507044311 91 119 0.0 0.0 0.00 0.00 0.00 61 985.0
20260507043812 90 173 1.0 2.0 0.00 0.00 0.00 62 985.0
20260507043312 89 126 1.0 1.0 0.00 0.00 0.00 63 985.0
20260507042811 89 234 1.0 2.0 0.00 0.00 0.00 62 985.0
20260507042311 89 133 0.0 1.0 0.00 0.00 0.00 62 985.0
20260507041811 89 117 2.0 2.0 0.00 0.00 0.00 62 985.0
20260507041311 91 96 1.0 1.0 0.00 0.00 0.00 61 985.0
20260507040812 91 126 0.0 1.0 0.00 0.00 0.00 60 986.0
20260507040312 91 118 0.0 0.0 0.00 0.00 0.00 59 985.0
20260507035812 91 117 0.0 1.0 0.00 0.00 0.00 58 985.0
20260507035311 90 76 0.0 1.0 0.00 0.00 0.00 58 985.0
20260507034811 89 176 1.0 1.0 0.00 0.00 0.00 58 985.0
20260507034312 88 30 1.0 2.0 0.00 0.00 0.00 61 985.0
20260507033811 89 152 2.0 2.0 0.00 0.00 0.00 61 985.0
20260507033311 88 82 1.0 1.0 0.00 0.00 0.00 61 985.0
20260507032812 88 65 2.0 2.0 0.00 0.00 0.00 62 985.0
20260507032311 87 116 0.0 0.0 0.00 0.00 0.00 61 985.0
20260507031811 87 123 0.0 1.0 0.00 0.00 0.00 61 985.0
20260507031312 86 116 0.0 1.0 0.00 0.00 0.00 64 985.0
20260507030811 85 117 2.0 3.0 0.00 0.00 0.00 65 985.0
20260507030313 85 93 2.0 2.0 0.00 0.00 0.00 65 985.0
20260507025811 85 85 2.0 3.0 0.00 0.00 0.00 65 985.0
20260507025311 85 94 0.0 1.0 0.00 0.00 0.00 66 985.0
20260507024811 85 72 1.0 2.0 0.00 0.00 0.00 67 985.0
20260507024312 85 122 0.0 0.0 0.00 0.00 0.00 69 985.0
20260507023811 85 127 0.0 1.0 0.00 0.00 0.00 68 985.0
20260507023311 85 112 0.0 1.0 0.00 0.00 0.00 69 985.0
20260507022812 84 154 1.0 1.0 0.00 0.00 0.00 70 985.0
20260507022312 85 137 0.0 1.0 0.00 0.00 0.00 69 985.0
20260507021813 85 122 0.0 0.0 0.00 0.00 0.00 70 984.0
20260507021311 85 122 0.0 0.0 0.00 0.00 0.00 71 985.0
20260507020812 84 119 0.0 0.0 0.00 0.00 0.00 72 985.0
20260507020311 83 123 0.0 0.0 0.00 0.00 0.00 71 985.0
20260507015812 82 113 0.0 1.0 0.00 0.00 0.00 73 984.0
20260507015311 82 113 0.0 0.0 0.00 0.00 0.00 75 985.0
20260507014812 81 111 0.0 0.0 0.00 0.00 0.00 77 984.0
20260507014312 81 112 0.0 1.0 0.00 0.00 0.00 77 984.0
20260507013811 80 111 0.0 0.0 0.00 0.00 0.00 79 984.0
20260507013311 79 115 0.0 0.0 0.00 0.00 0.00 81 984.0
20260507012811 79 105 0.0 0.0 0.00 0.00 0.00 82 984.0
20260507012313 78 51 0.0 1.0 0.00 0.00 0.00 82 984.0
20260507011811 78 45 1.0 1.0 0.00 0.00 0.00 82 984.0
20260507011312 79 111 1.0 1.0 0.00 0.00 0.00 82 984.0
20260507010813 79 131 0.0 0.0 0.00 0.00 0.00 82 984.0
20260507010322 79 133 0.0 0.0 0.00 0.00 0.00 82 984.0
20260507005811 79 130 0.0 0.0 0.00 0.00 0.00 82 984.0
20260507005312 79 126 0.0 0.0 0.00 0.00 0.00 82 984.0
20260507004811 79 134 0.0 0.0 0.00 0.00 0.00 82 984.0
20260507004311 79 130 0.0 0.0 0.00 0.00 0.00 82 984.0
20260507003311 79 129 0.0 0.0 0.00 0.00 0.00 82 984.0
20260507002811 79 123 0.0 0.0 0.00 0.00 0.00 81 984.0